GW5682 Weather Reports


Display with metric or nautical units.
time (UTC)temp
F
wind
direction
speed
MPH
gust
MPH
rain 1hr
in
rain 24hr
in
rain mn
in
humidity
%
barometer
mb
20260509012607 70 90 1.0 1.0 0.00 0.74 0.74 76 1011.1
20260509011632 70 135 1.0 1.0 0.00 0.74 0.74 75 1011.2
20260509010607 71 90 1.0 1.0 0.00 0.74 0.74 74 1011.0
20260509005631 71 0.0 0.0 0.00 0.74 0.74 73 1011.0
20260509004608 72 0.0 0.0 0.00 0.74 0.74 72 1010.7
20260509003632 72 0.0 1.0 0.00 0.74 0.74 72 1010.5
20260509002608 73 0.0 1.0 0.00 0.74 0.74 68 1010.6
20260509001632 74 225 1.0 1.0 0.00 0.74 0.74 67 1010.4
20260509000608 75 0.0 1.0 0.00 0.74 0.74 65 1010.6
20260508235632 75 0 1.0 1.0 0.00 0.74 0.74 64 1010.8
20260508234608 77 135 4.0 7.0 0.00 0.74 0.74 63 1010.3
20260508233631 77 180 3.0 5.0 0.00 0.74 0.74 63 1010.9
20260508232608 77 135 2.0 3.0 0.00 0.74 0.74 64 1010.9
20260508231631 77 0.0 1.0 0.00 0.74 0.74 63 1010.8
20260508230608 78 90 1.0 1.0 0.00 0.74 0.74 63 1011.0
20260508225632 79 135 1.0 2.0 0.00 0.74 0.74 61 1010.8
20260508224608 81 135 1.0 1.0 0.00 0.74 0.74 61 1011.0
20260508223652 81 135 1.0 2.0 0.00 0.74 0.74 61 1011.0
20260508222608 81 90 1.0 1.0 0.00 0.74 0.74 59 1011.0
20260508221632 81 135 1.0 1.0 0.00 0.74 0.74 59 1010.9
20260508220608 82 135 1.0 1.0 0.00 0.74 0.74 56 1010.8
20260508215631 81 135 3.0 3.0 0.00 0.74 0.74 59 1010.8
20260508214608 81 45 3.0 5.0 0.00 0.74 0.74 59 1010.6
20260508213632 81 90 3.0 5.0 0.00 0.74 0.74 57 1010.7
20260508212608 82 135 3.0 3.0 0.00 0.74 0.74 56 1011.1
20260508211652 80 135 2.0 3.0 0.00 0.74 0.74 61 1011.5
20260508210608 77 90 3.0 5.0 0.00 0.74 0.74 62 1011.7
20260508205632 78 203 1.0 3.0 0.00 0.74 0.74 61 1012.0
20260508204608 79 135 1.0 3.0 0.00 0.74 0.74 61 1012.4
20260508203632 79 90 1.0 2.0 0.00 0.74 0.74 61 1012.5
20260508202608 79 90 1.0 1.0 0.00 0.74 0.74 60 1012.3
20260508201632 80 135 1.0 1.0 0.00 0.74 0.74 60 1012.6
20260508200608 80 225 1.0 3.0 0.00 0.74 0.74 57 1012.7
20260508195632 81 180 2.0 3.0 0.00 0.74 0.74 57 1012.6
20260508194607 81 158 1.0 2.0 0.00 0.74 0.74 57 1012.7
20260508193632 80 135 1.0 1.0 0.00 0.74 0.74 55 1013.0
20260508192607 81 135 4.0 7.0 0.00 0.74 0.74 54 1013.0
20260508191632 81 90 3.0 5.0 0.00 0.74 0.74 56 1013.3
20260508190608 80 90 3.0 3.0 0.00 0.74 0.74 59 1013.2
20260508185631 79 0 2.0 3.0 0.00 0.74 0.74 60 1013.3
20260508184608 78 90 3.0 5.0 0.00 0.74 0.74 57 1013.3
20260508183632 78 90 2.0 3.0 0.00 0.74 0.74 56 1013.6
20260508182608 77 135 5.0 5.0 0.00 0.74 0.74 56 1013.8
20260508181712 78 135 5.0 7.0 0.00 0.74 0.74 60 1013.9
20260508180628 76 315 1.0 3.0 0.00 0.74 0.74 60 1014.1
20260508175632 76 45 1.0 1.0 0.00 0.74 0.74 57 1014.2
20260508174607 75 90 2.0 3.0 0.00 0.74 0.74 56 1014.5
20260508173632 76 90 3.0 5.0 0.00 0.74 0.74 57 1014.6
20260508172628 76 90 1.0 2.0 0.00 0.74 0.74 61 1014.9
20260508171632 75 0.0 1.0 0.00 0.74 0.74 61 1015.0
20260508170608 75 90 1.0 2.0 0.00 0.74 0.74 64 1015.2
20260508165712 74 90 1.0 1.0 0.00 0.74 0.74 65 1015.6
20260508164608 73 180 1.0 3.0 0.00 0.74 0.74 65 1015.7
20260508163631 72 90 1.0 2.0 0.00 0.74 0.74 71 1015.8
20260508162608 70 180 1.0 3.0 0.00 0.74 0.74 74 1016.0
20260508161631 69 225 1.0 2.0 0.00 0.74 0.74 74 1016.0
20260508160608 68 90 1.0 1.0 0.00 0.74 0.74 77 1016.1
20260508155652 67 0.0 1.0 0.00 0.74 0.74 78 1016.3
20260508154628 67 0.0 0.0 0.00 0.74 0.74 76 1016.4
20260508153652 68 90 1.0 1.0 0.00 0.74 0.74 78 1016.2
20260508152608 67 90 1.0 1.0 0.00 0.74 0.74 81 1016.2
20260508151632 66 90 1.0 2.0 0.00 0.74 0.74 81 1016.4
20260508150607 65 90 2.0 3.0 0.00 0.74 0.74 83 1016.3
20260508145631 65 90 1.0 1.0 0.00 0.74 0.74 86 1016.6
20260508144608 64 90 1.0 1.0 0.00 0.74 0.74 93 1016.5
20260508143632 64 180 1.0 3.0 0.00 0.74 0.74 95 1016.8
20260508142608 63 90 1.0 1.0 0.00 0.74 0.74 99 1016.6
20260508141632 63 90 1.0 1.0 0.00 0.74 0.74 99 1016.9
20260508140608 63 0.0 2.0 0.00 0.74 0.74 99 1016.6
20260508135632 62 0.0 0.0 0.00 0.74 0.74 99 1016.9
20260508134628 61 45 1.0 2.0 0.00 0.74 0.74 99 1016.7
20260508133631 61 0.0 1.0 0.01 0.74 0.74 99 1016.9
20260508132607 60 0.0 0.0 0.01 0.74 0.74 99 1016.4
20260508131631 60 135 1.0 1.0 0.01 0.74 0.74 99 1016.5
20260508130608 59 90 1.0 2.0 0.01 0.74 0.74 99 1017.1
20260508125632 59 0 1.0 1.0 0.01 0.74 0.74 99 1017.0
20260508124628 59 0.0 1.0 0.01 0.74 0.74 99 1017.2
20260508123632 59 0.0 0.0 0.00 0.73 0.73 99 1016.8
20260508122608 59 0.0 0.0 0.08 0.73 0.73 99 1017.0
20260508121631 59 0.0 0.0 0.15 0.73 0.73 99 1017.1
20260508120608 59 180 1.0 1.0 0.24 0.73 0.73 99 1017.0
20260508115631 58 180 1.0 1.0 0.30 0.73 0.73 99 1016.7
20260508114608 58 270 1.0 2.0 0.56 0.73 0.73 99 1016.8
20260508113632 58 0.0 1.0 0.57 0.73 0.73 98 1016.6
20260508112608 58 135 1.0 1.0 0.53 0.65 0.65 98 1016.3
20260508111631 58 90 1.0 2.0 0.47 0.58 0.58 98 1016.7
20260508110608 58 0.0 1.0 0.39 0.50 0.50 98 1017.1
20260508105632 59 45 2.0 3.0 0.33 0.44 0.44 98 1017.3
20260508104608 59 225 1.0 2.0 0.07 0.18 0.18 98 1017.3
20260508103632 59 90 1.0 2.0 0.06 0.17 0.17 98 1016.6
20260508102607 59 225 2.0 3.0 0.01 0.12 0.12 98 1016.4
20260508101651 59 0.0 0.0 0.00 0.11 0.11 97 1016.0
20260508100608 58 0.0 1.0 0.00 0.11 0.11 97 1015.6
20260508095652 58 0.0 0.0 0.00 0.11 0.11 97 1015.6
20260508094628 58 45 1.0 1.0 0.01 0.11 0.11 96 1015.7
20260508093652 58 0.0 0.0 0.01 0.11 0.11 96 1016.0
20260508092607 58 90 1.0 1.0 0.01 0.11 0.11 95 1015.9
20260508091632 58 45 1.0 2.0 0.05 0.11 0.11 94 1016.2
20260508090608 58 0.0 0.0 0.11 0.11 0.11 94 1016.6
20260508085632 59 0.0 0.0 0.11 0.11 0.11 94 1016.5
20260508084608 58 45 1.0 2.0 0.09 0.09 0.09 93 1016.1
20260508083652 58 0.0 1.0 0.09 0.09 0.09 92 1016.2
20260508082608 58 0.0 0.0 0.09 0.09 0.09 91 1016.4
20260508081631 59 0.0 1.0 0.06 0.06 0.06 91 1016.8
20260508080607 58 0.0 1.0 0.00 0.00 0.00 91 1017.6
20260508075632 58 270 1.0 1.0 0.00 0.00 0.00 91 1017.4
20260508074608 58 0.0 0.0 0.00 0.00 0.00 90 1017.3
20260508073652 57 0.0 0.0 0.00 0.00 0.00 90 1017.2
20260508072608 57 0.0 0.0 0.00 0.00 0.00 90 1017.0
20260508071632 57 0.0 0.0 0.00 0.00 0.00 89 1017.2
20260508070607 57 0.0 0.0 0.00 0.00 0.00 88 1017.2
20260508065652 57 0.0 0.0 0.00 0.00 0.00 87 1017.4
20260508064607 57 0.0 0.0 0.00 0.00 0.00 87 1017.9
20260508063632 57 0.0 0.0 0.00 0.00 0.00 86 1017.9
20260508062628 57 0.0 0.0 0.00 0.00 0.00 85 1017.9
20260508061632 58 0.0 0.0 0.00 0.00 0.00 85 1017.7
20260508060607 58 0.0 0.0 0.00 0.00 0.00 85 1017.5
20260508055652 58 0.0 0.0 0.00 0.00 0.00 84 1017.6
20260508054123 58 0.0 0.0 0.00 0.00 0.00 83 1017.7
20260508053147 58 0.0 0.0 0.00 0.00 0.00 83 1017.9
20260508052123 58 0.0 0.0 0.00 0.00 0.00 82 1017.9
20260508051147 59 0.0 0.0 0.00 0.00 0.00 82 1017.7
20260508050223 59 0.0 0.0 0.00 0.00 0.00 82 1017.9
20260508045147 59 0.0 0.0 0.00 0.00 0.00 81 1017.8
20260508044123 59 0.0 0.0 0.00 0.00 0.00 81 1017.5
20260508043147 59 0.0 0.0 0.00 0.00 0.00 80 1017.8
20260508042123 59 0.0 0.0 0.00 0.00 0.00 80 1017.9
20260508041247 59 0.0 0.0 0.00 0.00 0.00 80 1017.9
20260508040123 59 0.0 0.0 0.00 0.00 0.00 79 1017.7
20260508035147 59 0.0 0.0 0.00 0.00 0.00 78 1017.8
20260508034123 60 0.0 0.0 0.00 0.00 0.00 78 1017.6
20260508033147 59 0.0 0.0 0.00 0.00 0.00 77 1017.6
20260508032123 60 0.0 0.0 0.00 0.00 0.00 76 1017.4
20260508031207 60 0.0 0.0 0.00 0.00 0.00 76 1017.3
20260508030143 60 0.0 0.0 0.00 0.00 0.00 75 1017.5
20260508025207 60 0.0 0.0 0.00 0.00 0.00 75 1017.4
20260508024123 61 0.0 0.0 0.00 0.00 0.00 74 1017.4
20260508023147 61 0.0 0.0 0.00 0.00 0.00 73 1017.2
20260508022123 61 0.0 0.0 0.00 0.00 0.00 72 1017.2
20260508021147 61 0.0 0.0 0.00 0.00 0.00 72 1017.3
20260508020123 62 0.0 1.0 0.00 0.00 0.00 71 1017.1
20260508015147 62 0.0 0.0 0.00 0.00 0.00 71 1017.1
20260508014123 63 0.0 0.0 0.00 0.00 0.00 70 1017.1
20260508013147 64 0.0 0.0 0.00 0.00 0.00 65 1017.1